Time,TemperatureF,DewpointF,PressureIn,WindDirection,WindDirectionDegrees,WindSpeedMPH,WindSpeedGustMPH,Humidity,HourlyPrecipIn,Conditions,Clouds,dailyrainin,SoftwareType,DateUTC
2013-08-29 00:05:00,64.5,63.9,29.73,ESE,102,2.0,6.0,98,0.00,,,0.00,Wunderground v.1.15,2013-08-29 04:05:00,
2013-08-29 00:15:00,64.0,63.4,29.73,ESE,102,0.0,6.0,98,0.00,,,0.00,Wunderground v.1.15,2013-08-29 04:15:00,
2013-08-29 00:25:00,64.0,63.4,29.73,ESE,102,0.0,6.0,98,0.00,,,0.00,Wunderground v.1.15,2013-08-29 04:25:00,
2013-08-29 00:30:00,63.7,63.1,29.73,ESE,102,0.0,6.0,98,0.00,,,0.00,Wunderground v.1.15,2013-08-29 04:30:00,
2013-08-29 00:40:00,63.4,62.8,29.73,ESE,102,0.0,6.0,98,0.00,,,0.00,Wunderground v.1.15,2013-08-29 04:40:00,
2013-08-29 00:50:00,63.1,62.5,29.74,ESE,102,0.0,6.0,98,0.00,,,0.00,Wunderground v.1.15,2013-08-29 04:50:00,
2013-08-29 01:00:00,63.2,62.6,29.74,ESE,102,0.0,6.0,98,0.00,,,0.00,Wunderground v.1.15,2013-08-29 05:00:00,
2013-08-29 01:10:00,63.3,62.7,29.74,ESE,102,0.0,6.0,98,0.00,,,0.00,Wunderground v.1.15,2013-08-29 05:10:00,
2013-08-29 01:20:00,63.6,63.0,29.74,East,100,1.0,1.0,98,0.00,,,0.00,Wunderground v.1.15,2013-08-29 05:20:00,
2013-08-29 01:30:00,62.7,62.1,29.74,East,100,0.0,6.0,98,0.00,,,0.00,Wunderground v.1.15,2013-08-29 05:30:00,
2013-08-29 01:40:00,62.4,61.8,29.74,East,100,0.0,6.0,98,0.00,,,0.00,Wunderground v.1.15,2013-08-29 05:40:00,
2013-08-29 01:50:00,62.5,62.2,29.74,East,100,0.0,6.0,99,0.00,,,0.00,Wunderground v.1.15,2013-08-29 05:50:00,
2013-08-29 02:00:00,62.3,61.7,29.74,East,100,0.0,6.0,98,0.00,,,0.00,Wunderground v.1.15,2013-08-29 06:00:00,
2013-08-29 02:10:00,61.8,61.2,29.74,East,100,0.0,6.0,98,0.00,,,0.00,Wunderground v.1.15,2013-08-29 06:10:00,
2013-08-29 02:20:00,61.8,61.5,29.74,East,100,0.0,6.0,99,0.00,,,0.00,Wunderground v.1.15,2013-08-29 06:20:00,
2013-08-29 02:25:00,61.7,61.4,29.74,East,100,0.0,6.0,99,0.00,,,0.00,Wunderground v.1.15,2013-08-29 06:25:00,
2013-08-29 02:35:00,61.2,60.6,29.74,East,100,0.0,6.0,98,0.00,,,0.00,Wunderground v.1.15,2013-08-29 06:35:00,
2013-08-29 02:45:00,61.1,60.8,29.74,East,100,0.0,6.0,99,0.00,,,0.00,Wunderground v.1.15,2013-08-29 06:45:00,
2013-08-29 02:55:00,61.2,60.9,29.74,East,100,0.0,6.0,99,0.00,,,0.00,Wunderground v.1.15,2013-08-29 06:55:00,
2013-08-29 03:05:00,61.1,60.8,29.74,East,100,0.0,6.0,99,0.00,,,0.00,Wunderground v.1.15,2013-08-29 07:05:00,
2013-08-29 03:15:00,60.7,60.4,29.74,East,100,0.0,6.0,99,0.00,,,0.00,Wunderground v.1.15,2013-08-29 07:15:00,
2013-08-29 03:25:00,60.9,60.6,29.74,East,100,0.0,6.0,99,0.00,,,0.00,Wunderground v.1.15,2013-08-29 07:25:00,
2013-08-29 03:35:00,60.8,60.5,29.75,East,100,0.0,6.0,99,0.00,,,0.00,Wunderground v.1.15,2013-08-29 07:35:00,
2013-08-29 03:45:00,60.7,60.4,29.75,East,100,0.0,6.0,99,0.00,,,0.00,Wunderground v.1.15,2013-08-29 07:45:00,
2013-08-29 03:50:00,60.5,60.2,29.75,East,100,0.0,6.0,99,0.00,,,0.00,Wunderground v.1.15,2013-08-29 07:50:00,
2013-08-29 04:00:00,60.2,59.9,29.75,East,100,0.0,6.0,99,0.00,,,0.00,Wunderground v.1.15,2013-08-29 08:00:00,
2013-08-29 04:10:00,60.1,59.8,29.75,East,100,0.0,6.0,99,0.00,,,0.01,Wunderground v.1.15,2013-08-29 08:10:00,
2013-08-29 04:20:00,59.8,59.5,29.75,East,100,0.0,6.0,99,0.00,,,0.01,Wunderground v.1.15,2013-08-29 08:20:00,
2013-08-29 04:30:00,59.6,59.3,29.76,East,100,0.0,6.0,99,0.00,,,0.01,Wunderground v.1.15,2013-08-29 08:30:00,
2013-08-29 04:40:00,59.4,59.1,29.76,East,100,0.0,6.0,99,0.00,,,0.01,Wunderground v.1.15,2013-08-29 08:40:00,
2013-08-29 04:50:00,59.5,59.2,29.76,East,100,1.0,6.0,99,0.00,,,0.01,Wunderground v.1.15,2013-08-29 08:50:00,
2013-08-29 04:55:00,59.5,59.2,29.76,East,100,2.0,6.0,99,0.00,,,0.01,Wunderground v.1.15,2013-08-29 08:55:00,
2013-08-29 05:05:00,59.3,59.0,29.76,East,100,1.0,6.0,99,0.00,,,0.01,Wunderground v.1.15,2013-08-29 09:05:00,
2013-08-29 05:15:00,59.1,58.8,29.76,East,100,0.0,6.0,99,0.00,,,0.01,Wunderground v.1.15,2013-08-29 09:15:00,
2013-08-29 05:25:00,59.1,58.8,29.77,East,100,0.0,6.0,99,0.00,,,0.01,Wunderground v.1.15,2013-08-29 09:25:00,
2013-08-29 05:35:00,59.1,58.8,29.77,East,100,0.0,6.0,99,0.00,,,0.01,Wunderground v.1.15,2013-08-29 09:35:00,
2013-08-29 05:45:00,58.8,58.5,29.78,East,100,0.0,6.0,99,0.00,,,0.01,Wunderground v.1.15,2013-08-29 09:45:00,
2013-08-29 05:50:00,58.6,58.3,29.78,East,100,0.0,6.0,99,0.00,,,0.01,Wunderground v.1.15,2013-08-29 09:50:00,
2013-08-29 06:00:00,58.3,58.0,29.78,East,100,0.0,6.0,99,0.00,,,0.01,Wunderground v.1.15,2013-08-29 10:00:00,
2013-08-29 06:10:00,58.5,58.5,29.78,East,100,1.0,6.0,100,0.00,,,0.01,Wunderground v.1.15,2013-08-29 10:10:00,
2013-08-29 06:20:00,58.9,58.9,29.78,East,100,1.0,1.0,100,0.00,,,0.01,Wunderground v.1.15,2013-08-29 10:20:00,
2013-08-29 06:30:00,59.3,59.3,29.79,East,100,1.0,1.0,100,0.00,,,0.01,Wunderground v.1.15,2013-08-29 10:30:00,
2013-08-29 06:40:00,59.8,59.8,29.79,East,100,1.0,6.0,100,0.00,,,0.01,Wunderground v.1.15,2013-08-29 10:40:00,
2013-08-29 06:45:00,60.1,60.1,29.79,East,100,2.0,6.0,100,0.00,,,0.01,Wunderground v.1.15,2013-08-29 10:45:00,
2013-08-29 06:55:00,60.4,60.4,29.80,East,100,2.0,6.0,100,0.00,,,0.01,Wunderground v.1.15,2013-08-29 10:55:00,
2013-08-29 07:05:00,60.7,60.7,29.80,East,100,2.0,6.0,100,0.00,,,0.01,Wunderground v.1.15,2013-08-29 11:05:00,
2013-08-29 07:15:00,61.1,61.1,29.80,East,100,1.0,6.0,100,0.00,,,0.01,Wunderground v.1.15,2013-08-29 11:15:00,
2013-08-29 07:25:00,61.5,61.5,29.80,East,100,1.0,2.0,100,0.00,,,0.01,Wunderground v.1.15,2013-08-29 11:25:00,
2013-08-29 07:35:00,62.0,62.0,29.80,East,101,2.0,6.0,100,0.00,,,0.01,Wunderground v.1.15,2013-08-29 11:35:00,
2013-08-29 07:45:00,62.7,62.7,29.81,East,101,1.0,6.0,100,0.00,,,0.01,Wunderground v.1.15,2013-08-29 11:45:00,
2013-08-29 07:55:00,63.2,63.2,29.81,East,101,1.0,6.0,100,0.00,,,0.01,Wunderground v.1.15,2013-08-29 11:55:00,
2013-08-29 08:05:00,63.7,63.7,29.81,ESE,103,2.0,6.0,100,0.00,,,0.01,Wunderground v.1.15,2013-08-29 12:05:00,
2013-08-29 08:15:00,64.3,64.3,29.82,ESE,104,2.0,6.0,100,0.00,,,0.01,Wunderground v.1.15,2013-08-29 12:15:00,
2013-08-29 08:25:00,64.7,64.7,29.82,ESE,109,2.0,6.0,100,0.00,,,0.01,Wunderground v.1.15,2013-08-29 12:25:00,
2013-08-29 08:35:00,64.8,64.8,29.82,ESE,109,1.0,6.0,100,0.00,,,0.01,Wunderground v.1.15,2013-08-29 12:35:00,
2013-08-29 08:40:00,64.9,64.9,29.82,ESE,109,1.0,1.0,100,0.00,,,0.01,Wunderground v.1.15,2013-08-29 12:40:00,
2013-08-29 08:50:00,65.1,65.1,29.82,ESE,109,0.0,6.0,100,0.00,,,0.01,Wunderground v.1.15,2013-08-29 12:50:00,
2013-08-29 09:00:00,66.0,66.0,29.82,ESE,109,0.0,6.0,100,0.00,,,0.01,Wunderground v.1.15,2013-08-29 13:00:00,
2013-08-29 09:10:00,66.4,66.4,29.82,ESE,109,0.0,6.0,100,0.00,,,0.01,Wunderground v.1.15,2013-08-29 13:10:00,
2013-08-29 09:20:00,66.6,66.6,29.82,ESE,109,0.0,6.0,100,0.00,,,0.01,Wunderground v.1.15,2013-08-29 13:20:00,
2013-08-29 09:25:00,67.0,67.0,29.83,ESE,109,0.0,6.0,100,0.00,,,0.01,Wunderground v.1.15,2013-08-29 13:25:00,
2013-08-29 09:35:00,67.5,67.5,29.83,ESE,109,0.0,6.0,100,0.00,,,0.01,Wunderground v.1.15,2013-08-29 13:35:00,
2013-08-29 09:45:00,67.8,67.8,29.83,ESE,109,0.0,6.0,100,0.00,,,0.01,Wunderground v.1.15,2013-08-29 13:45:00,
2013-08-29 09:55:00,68.4,68.1,29.83,ESE,109,1.0,6.0,99,0.00,,,0.01,Wunderground v.1.15,2013-08-29 13:55:00,
2013-08-29 10:05:00,68.7,68.1,29.83,ESE,109,1.0,6.0,98,0.00,,,0.01,Wunderground v.1.15,2013-08-29 14:05:00,
2013-08-29 10:15:00,69.7,69.1,29.83,ESE,108,1.0,6.0,98,0.00,,,0.01,Wunderground v.1.15,2013-08-29 14:15:00,
2013-08-29 10:25:00,70.6,68.8,29.83,ESE,108,0.0,6.0,94,0.00,,,0.01,Wunderground v.1.15,2013-08-29 14:25:00,
2013-08-29 10:35:00,71.5,69.1,29.83,ESE,108,0.0,6.0,92,0.00,,,0.01,Wunderground v.1.15,2013-08-29 14:35:00,
2013-08-29 10:45:00,72.4,69.0,29.83,WNW,302,0.0,6.0,89,0.00,,,0.01,Wunderground v.1.15,2013-08-29 14:45:00,
2013-08-29 10:55:00,73.1,69.0,29.83,East,85,2.0,2.0,87,0.00,,,0.01,Wunderground v.1.15,2013-08-29 14:55:00,
2013-08-29 11:05:00,74.2,69.7,29.82,NW,312,0.0,6.0,86,0.00,,,0.01,Wunderground v.1.15,2013-08-29 15:05:00,
2013-08-29 11:15:00,74.3,68.8,29.83,ENE,67,0.0,6.0,83,0.00,,,0.01,Wunderground v.1.15,2013-08-29 15:15:00,
2013-08-29 11:25:00,74.6,68.7,29.83,WNW,285,0.0,6.0,82,0.00,,,0.01,Wunderground v.1.15,2013-08-29 15:25:00,
2013-08-29 11:35:00,75.3,69.8,29.82,WNW,282,0.0,6.0,83,0.00,,,0.01,Wunderground v.1.15,2013-08-29 15:35:00,
2013-08-29 11:45:00,76.6,70.0,29.82,WNW,282,0.0,6.0,80,0.00,,,0.01,Wunderground v.1.15,2013-08-29 15:45:00,
2013-08-29 11:55:00,76.2,69.2,29.82,NNW,338,1.0,6.0,79,0.00,,,0.01,Wunderground v.1.15,2013-08-29 15:55:00,
2013-08-29 12:05:00,76.6,69.6,29.82,WNW,297,1.0,6.0,79,0.00,,,0.01,Wunderground v.1.15,2013-08-29 16:05:00,
2013-08-29 12:10:00,76.7,69.7,29.82,WNW,298,1.0,1.0,79,0.00,,,0.01,Wunderground v.1.15,2013-08-29 16:10:00,
2013-08-29 12:20:00,76.7,70.4,29.82,NW,325,0.0,6.0,81,0.00,,,0.01,Wunderground v.1.15,2013-08-29 16:20:00,
2013-08-29 12:30:00,77.0,70.0,29.82,West,280,1.0,1.0,79,0.00,,,0.01,Wunderground v.1.15,2013-08-29 16:30:00,
2013-08-29 12:40:00,78.1,70.3,29.82,WSW,237,2.0,6.0,77,0.00,,,0.01,Wunderground v.1.15,2013-08-29 16:40:00,
2013-08-29 12:50:00,77.3,69.5,29.82,NNW,327,0.0,6.0,77,0.00,,,0.01,Wunderground v.1.15,2013-08-29 16:50:00,
2013-08-29 12:55:00,77.1,69.7,29.82,NNW,328,0.0,6.0,78,0.00,,,0.01,Wunderground v.1.15,2013-08-29 16:55:00,
2013-08-29 13:05:00,78.2,70.0,29.82,ESE,107,2.0,6.0,76,0.00,,,0.01,Wunderground v.1.15,2013-08-29 17:05:00,
2013-08-29 13:15:00,78.9,69.1,29.81,NNW,331,1.0,6.0,72,0.00,,,0.01,Wunderground v.1.15,2013-08-29 17:15:00,
2013-08-29 13:25:00,79.3,69.1,29.81,NW,311,1.0,6.0,71,0.00,,,0.01,Wunderground v.1.15,2013-08-29 17:25:00,
2013-08-29 13:35:00,79.4,68.8,29.81,North,355,1.0,6.0,70,0.00,,,0.01,Wunderground v.1.15,2013-08-29 17:35:00,
2013-08-29 13:40:00,79.8,69.6,29.81,West,279,1.0,6.0,71,0.00,,,0.01,Wunderground v.1.15,2013-08-29 17:40:00,
2013-08-29 13:50:00,81.2,70.5,29.81,WNW,292,1.0,6.0,70,0.00,,,0.01,Wunderground v.1.15,2013-08-29 17:50:00,
2013-08-29 14:00:00,81.9,69.9,29.80,WNW,293,1.0,1.0,67,0.00,,,0.01,Wunderground v.1.15,2013-08-29 18:00:00,
2013-08-29 14:10:00,81.6,69.1,29.80,SE,124,1.0,1.0,66,0.00,,,0.01,Wunderground v.1.15,2013-08-29 18:10:00,
2013-08-29 14:20:00,81.9,70.3,29.80,WNW,292,2.0,2.0,68,0.00,,,0.01,Wunderground v.1.15,2013-08-29 18:20:00,
2013-08-29 14:30:00,81.4,68.5,29.79,NW,305,1.0,6.0,65,0.00,,,0.01,Wunderground v.1.15,2013-08-29 18:30:00,
2013-08-29 14:40:00,81.0,69.0,29.79,NW,306,2.0,2.0,67,0.00,,,0.01,Wunderground v.1.15,2013-08-29 18:40:00,
2013-08-29 14:50:00,81.6,68.7,29.79,NW,306,1.0,6.0,65,0.00,,,0.01,Wunderground v.1.15,2013-08-29 18:50:00,
2013-08-29 15:00:00,80.8,67.0,29.78,WNW,297,3.0,3.0,63,0.00,,,0.01,Wunderground v.1.15,2013-08-29 19:00:00,
2013-08-29 15:10:00,81.6,68.2,29.78,WNW,288,2.0,6.0,64,0.00,,,0.01,Wunderground v.1.15,2013-08-29 19:10:00,
2013-08-29 15:20:00,80.0,66.7,29.78,WNW,294,3.0,3.0,64,0.00,,,0.01,Wunderground v.1.15,2013-08-29 19:20:00,
2013-08-29 15:30:00,80.2,67.8,29.78,NW,310,1.0,6.0,66,0.00,,,0.01,Wunderground v.1.15,2013-08-29 19:30:00,
2013-08-29 15:35:00,81.4,67.6,29.78,North,355,2.0,6.0,63,0.00,,,0.01,Wunderground v.1.15,2013-08-29 19:35:00,
2013-08-29 15:45:00,81.2,67.4,29.78,NW,307,1.0,6.0,63,0.00,,,0.01,Wunderground v.1.15,2013-08-29 19:45:00,
2013-08-29 15:55:00,81.2,68.3,29.77,NW,313,2.0,2.0,65,0.00,,,0.01,Wunderground v.1.15,2013-08-29 19:55:00,
2013-08-29 16:05:00,82.3,68.0,29.77,NW,314,1.0,6.0,62,0.00,,,0.01,Wunderground v.1.15,2013-08-29 20:05:00,
2013-08-29 16:15:00,82.5,67.7,29.77,WSW,237,1.0,6.0,61,0.00,,,0.01,Wunderground v.1.15,2013-08-29 20:15:00,
2013-08-29 16:25:00,82.8,68.4,29.77,West,268,1.0,2.0,62,0.00,,,0.01,Wunderground v.1.15,2013-08-29 20:25:00,
2013-08-29 16:35:00,82.6,67.8,29.77,WNW,294,2.0,6.0,61,0.00,,,0.01,Wunderground v.1.15,2013-08-29 20:35:00,
2013-08-29 16:45:00,84.2,67.3,29.77,West,273,1.0,6.0,57,0.00,,,0.01,Wunderground v.1.15,2013-08-29 20:45:00,
2013-08-29 16:55:00,83.7,68.3,29.77,WNW,294,3.0,6.0,60,0.00,,,0.01,Wunderground v.1.15,2013-08-29 20:55:00,
2013-08-29 17:00:00,83.1,67.8,29.77,WNW,303,4.0,6.0,60,0.00,,,0.01,Wunderground v.1.15,2013-08-29 21:00:00,
2013-08-29 17:10:00,80.7,68.3,29.78,NW,306,5.0,6.0,66,0.00,,,0.01,Wunderground v.1.15,2013-08-29 21:10:00,
2013-08-29 17:20:00,80.2,69.1,29.78,West,277,2.0,6.0,69,0.00,,,0.01,Wunderground v.1.15,2013-08-29 21:20:00,
2013-08-29 17:30:00,77.2,69.0,29.79,NW,325,1.0,1.0,76,0.20,,,0.03,Wunderground v.1.15,2013-08-29 21:30:00,
2013-08-29 17:40:00,75.1,69.2,29.79,NW,325,1.0,6.0,82,0.33,,,0.06,Wunderground v.1.15,2013-08-29 21:40:00,
2013-08-29 17:45:00,74.4,69.9,29.78,NW,325,1.0,6.0,86,0.28,,,0.08,Wunderground v.1.15,2013-08-29 21:45:00,
2013-08-29 17:55:00,74.2,71.1,29.78,NW,305,2.0,6.0,90,0.05,,,0.08,Wunderground v.1.15,2013-08-29 21:55:00,
2013-08-29 18:05:00,74.8,70.3,29.78,NW,305,0.0,6.0,86,0.00,,,0.08,Wunderground v.1.15,2013-08-29 22:05:00,
2013-08-29 18:10:00,75.0,70.2,29.78,NW,305,0.0,6.0,85,0.00,,,0.08,Wunderground v.1.15,2013-08-29 22:10:00,
2013-08-29 18:20:00,75.1,69.2,29.78,NW,305,0.0,6.0,82,0.00,,,0.08,Wunderground v.1.15,2013-08-29 22:20:00,
2013-08-29 18:30:00,75.3,69.8,29.78,NW,305,1.0,6.0,83,0.00,,,0.08,Wunderground v.1.15,2013-08-29 22:30:00,
2013-08-29 18:40:00,74.2,69.1,29.78,NW,305,2.0,6.0,84,0.00,,,0.08,Wunderground v.1.15,2013-08-29 22:40:00,
2013-08-29 18:50:00,73.3,69.2,29.78,NW,305,2.0,6.0,87,0.00,,,0.08,Wunderground v.1.15,2013-08-29 22:50:00,
2013-08-29 19:00:00,72.3,69.2,29.79,NW,305,2.0,2.0,90,0.00,,,0.08,Wunderground v.1.15,2013-08-29 23:00:00,
2013-08-29 19:10:00,71.9,69.1,29.79,NW,305,0.0,6.0,91,0.00,,,0.08,Wunderground v.1.15,2013-08-29 23:10:00,
2013-08-29 19:20:00,71.5,68.7,29.79,NW,305,0.0,6.0,91,0.00,,,0.08,Wunderground v.1.15,2013-08-29 23:20:00,
2013-08-29 19:30:00,70.8,68.0,29.79,NW,305,0.0,6.0,91,0.00,,,0.08,Wunderground v.1.15,2013-08-29 23:30:00,
2013-08-29 19:40:00,69.9,67.5,29.80,NW,305,0.0,6.0,92,0.00,,,0.08,Wunderground v.1.15,2013-08-29 23:40:00,
2013-08-29 19:50:00,70.3,66.9,29.79,WSW,250,2.0,2.0,89,0.00,,,0.08,Wunderground v.1.15,2013-08-29 23:50:00,
2013-08-29 19:55:00,70.7,67.0,29.80,WSW,251,2.0,6.0,88,0.00,,,0.08,Wunderground v.1.15,2013-08-29 23:55:00,
2013-08-29 20:05:00,70.9,67.5,29.80,WSW,251,1.0,6.0,89,0.00,,,0.08,Wunderground v.1.15,2013-08-30 00:05:00,
2013-08-29 20:15:00,70.8,67.7,29.81,East,93,1.0,6.0,90,0.00,,,0.08,Wunderground v.1.15,2013-08-30 00:15:00,
2013-08-29 20:20:00,70.7,67.9,29.80,East,93,0.0,6.0,91,0.00,,,0.08,Wunderground v.1.15,2013-08-30 00:20:00,
2013-08-29 20:30:00,70.6,67.8,29.80,East,93,0.0,6.0,91,0.00,,,0.08,Wunderground v.1.15,2013-08-30 00:30:00,
2013-08-29 20:40:00,70.3,67.2,29.80,East,93,0.0,6.0,90,0.00,,,0.08,Wunderground v.1.15,2013-08-30 00:40:00,
2013-08-29 20:45:00,69.8,67.1,29.80,East,93,0.0,6.0,91,0.00,,,0.08,Wunderground v.1.15,2013-08-30 00:45:00,
2013-08-29 20:55:00,69.1,66.7,29.80,East,93,0.0,6.0,92,0.00,,,0.08,Wunderground v.1.15,2013-08-30 00:55:00,
2013-08-29 21:05:00,68.9,67.1,29.80,East,93,0.0,6.0,94,0.00,,,0.08,Wunderground v.1.15,2013-08-30 01:05:00,
2013-08-29 21:10:00,68.8,67.0,29.80,East,93,0.0,6.0,94,0.00,,,0.08,Wunderground v.1.15,2013-08-30 01:10:00,
2013-08-29 21:20:00,68.6,66.8,29.80,East,93,0.0,6.0,94,0.00,,,0.08,Wunderground v.1.15,2013-08-30 01:20:00,
2013-08-29 21:30:00,68.3,66.5,29.80,East,93,0.0,6.0,94,0.00,,,0.08,Wunderground v.1.15,2013-08-30 01:30:00,
2013-08-29 21:35:00,68.2,66.4,29.80,East,93,0.0,6.0,94,0.00,,,0.08,Wunderground v.1.15,2013-08-30 01:35:00,
2013-08-29 21:45:00,68.4,66.6,29.80,East,93,0.0,6.0,94,0.00,,,0.08,Wunderground v.1.15,2013-08-30 01:45:00,
2013-08-29 21:55:00,67.7,65.6,29.81,East,93,0.0,6.0,93,0.00,,,0.08,Wunderground v.1.15,2013-08-30 01:55:00,
2013-08-29 22:00:00,67.2,65.1,29.81,East,93,0.0,6.0,93,0.00,,,0.08,Wunderground v.1.15,2013-08-30 02:00:00,
2013-08-29 22:10:00,66.7,64.9,29.81,East,93,0.0,6.0,94,0.00,,,0.08,Wunderground v.1.15,2013-08-30 02:10:00,
2013-08-29 22:20:00,66.2,64.4,29.81,East,93,0.0,6.0,94,0.00,,,0.08,Wunderground v.1.15,2013-08-30 02:20:00,
2013-08-29 22:30:00,65.9,64.4,29.81,East,93,0.0,6.0,95,0.00,,,0.08,Wunderground v.1.15,2013-08-30 02:30:00,
2013-08-29 22:40:00,66.2,65.0,29.81,East,93,0.0,6.0,96,0.00,,,0.08,Wunderground v.1.15,2013-08-30 02:40:00,
2013-08-29 22:50:00,65.0,63.5,29.81,East,93,0.0,6.0,95,0.00,,,0.08,Wunderground v.1.15,2013-08-30 02:50:00,
2013-08-29 23:00:00,64.9,64.0,29.80,East,93,0.0,6.0,97,0.00,,,0.08,Wunderground v.1.15,2013-08-30 03:00:00,
2013-08-29 23:10:00,65.0,64.1,29.80,East,93,0.0,6.0,97,0.00,,,0.08,Wunderground v.1.15,2013-08-30 03:10:00,
2013-08-29 23:20:00,63.8,62.6,29.80,East,93,0.0,6.0,96,0.00,,,0.08,Wunderground v.1.15,2013-08-30 03:20:00,
2013-08-29 23:25:00,63.7,62.8,29.80,East,93,0.0,6.0,97,0.00,,,0.08,Wunderground v.1.15,2013-08-30 03:25:00,
2013-08-29 23:35:00,63.7,62.8,29.80,East,93,0.0,6.0,97,0.00,,,0.08,Wunderground v.1.15,2013-08-30 03:35:00,
2013-08-29 23:45:00,63.1,62.2,29.80,East,93,0.0,6.0,97,0.00,,,0.08,Wunderground v.1.15,2013-08-30 03:45:00,
2013-08-29 23:55:00,63.0,62.1,29.80,East,93,0.0,6.0,97,0.00,,,0.08,Wunderground v.1.15,2013-08-30 03:55:00,